User: anonymous   Login
Location: Baix
(44.7118°N, 4.7648°E)
Time: 00:26:51
(UTC+00:00)
Language:

Cosmos 2098 Rocket - Orbit

View from above orbital plane
View from above orbital plane
View from above satellite
View from above satellite

Ground track
Ground track

The orbit data is extracted from the following two-line orbital elements,

1 20775U 90078B   20293.46848808  .00003326  00000-0  16020-3 0  9993
2 20775  82.9231 124.3457 0572134 170.2553 191.0331 14.34785367523511
Epoch (UTC): 19 October 2020 11:14:37
Eccentricity: 0.0572134
inclination: 82.9231°
perigee height: 366 km
apogee height: 1185 km
right ascension of ascending node: 124.3457°
argument of perigee: 170.2553°
revolutions per day: 14.34785367
mean anomaly at epoch: 191.0331°
orbit number at epoch: 52351

The dashed part of the orbit path shows where the satellite is in the earth's shadow,  

DLR